• în Republica Moldova
  • Lista ţărilor
  • Pe 7 zile
  • Temperatura apei
  • Hartă satelitară
  • Meteo pe hartă
  • Widget-uri
  • user-avatar
    Intrare

    Meteo pe oră la Perth

    Astăzi, 19 Noiembrie, Duminică

    Timp Temperatura Precipitaţii Vânt Presiune Umiditate
    00:00 +17°C° 0 mm 3 m/s 757 mmHg 90%
    01:00 +17°C° 0 mm 3 m/s 757 mmHg 91%
    02:00 +17°C° 0 mm 3 m/s 757 mmHg 92%
    03:00 +16°C° 0 mm 2 m/s 757 mmHg 92%
    04:00 +16°C° 0 mm 2 m/s 757 mmHg 92%
    05:00 +16°C° 0 mm 2 m/s 758 mmHg 92%
    06:00 +19°C° 0 mm 1 m/s 758 mmHg 84%
    07:00 +21°C° 0 mm 1 m/s 758 mmHg 75%
    08:00 +21°C° 0 mm 0 m/s 758 mmHg 66%
    09:00 +24°C° 0 mm 1 m/s 758 mmHg 59%
    10:00 +25°C° 0 mm 2 m/s 758 mmHg 52%
    11:00 +27°C° 0 mm 3 m/s 758 mmHg 45%
    12:00 +27°C° 0 mm 4 m/s 758 mmHg 46%
    13:00 +27°C° 0 mm 4 m/s 757 mmHg 47%
    14:00 +27°C° 0 mm 5 m/s 757 mmHg 48%
    15:00 +26°C° 0 mm 5 m/s 757 mmHg 52%
    16:00 +25°C° 0 mm 5 m/s 757 mmHg 55%
    17:00 +23°C° 0 mm 5 m/s 757 mmHg 59%
    18:00 +22°C° 0 mm 5 m/s 757 mmHg 65%
    19:00 +20°C° 0 mm 4 m/s 757 mmHg 70%
    20:00 +18°C° 0 mm 4 m/s 757 mmHg 76%
    21:00 +18°C° 0 mm 4 m/s 758 mmHg 78%
    22:00 +17°C° 0 mm 3 m/s 758 mmHg 79%
    23:00 +17°C° 0 mm 3 m/s 758 mmHg 81%

    Mâine, 20 Noiembrie, Luni

    Timp Temperatura Precipitaţii Vânt Presiune Umiditate
    00:00 +16°C° 0 mm 3 m/s 758 mmHg 81%
    01:00 +16°C° 0 mm 3 m/s 758 mmHg 82%
    02:00 +16°C° 0 mm 3 m/s 757 mmHg 83%
    03:00 +16°C° 0 mm 3 m/s 758 mmHg 83%
    04:00 +14°C° 0 mm 3 m/s 758 mmHg 83%
    05:00 +14°C° 0 mm 3 m/s 758 mmHg 83%
    06:00 +17°C° 0 mm 3 m/s 758 mmHg 76%
    07:00 +18°C° 0 mm 3 m/s 758 mmHg 68%
    08:00 +19°C° 0 mm 3 m/s 759 mmHg 61%
    09:00 +21°C° 0 mm 4 m/s 759 mmHg 55%
    10:00 +22°C° 0 mm 4 m/s 759 mmHg 50%
    11:00 +23°C° 0 mm 4 m/s 758 mmHg 45%
    12:00 +25°C° 0 mm 4 m/s 758 mmHg 44%
    13:00 +25°C° 0 mm 5 m/s 758 mmHg 43%
    14:00 +25°C° 0 mm 5 m/s 757 mmHg 42%
    15:00 +25°C° 0 mm 5 m/s 757 mmHg 45%
    16:00 +23°C° 0 mm 5 m/s 758 mmHg 49%
    17:00 +23°C° 0 mm 5 m/s 758 mmHg 53%
    18:00 +21°C° 0 mm 5 m/s 758 mmHg 60%
    19:00 +20°C° 0 mm 4 m/s 759 mmHg 68%
    20:00 +19°C° 0 mm 4 m/s 759 mmHg 75%
    21:00 +18°C° 0 mm 4 m/s 760 mmHg 79%
    22:00 +18°C° 0 mm 4 m/s 760 mmHg 84%
    23:00 +18°C° 0 mm 4 m/s 760 mmHg 88%

    Poimâine, 21 Noiembrie, Marţi

    Timp Temperatura Precipitaţii Vânt Presiune Umiditate
    00:00 +17°C° 0 mm 4 m/s 760 mmHg 88%
    01:00 +17°C° 0 mm 4 m/s 760 mmHg 88%
    02:00 +15°C° 0 mm 5 m/s 760 mmHg 88%
    03:00 +15°C° 0 mm 5 m/s 761 mmHg 87%
    04:00 +14°C° 0 mm 5 m/s 761 mmHg 85%
    05:00 +13°C° 0 mm 5 m/s 761 mmHg 84%
    06:00 +15°C° 0 mm 5 m/s 762 mmHg 74%
    07:00 +16°C° 0 mm 5 m/s 762 mmHg 65%
    08:00 +17°C° 0 mm 5 m/s 763 mmHg 56%
    09:00 +20°C° 0 mm 5 m/s 762 mmHg 48%
    10:00 +22°C° 0 mm 5 m/s 762 mmHg 41%
    11:00 +25°C° 0 mm 4 m/s 762 mmHg 34%
    12:00 +26°C° 0 mm 5 m/s 762 mmHg 31%
    13:00 +27°C° 0 mm 5 m/s 761 mmHg 28%
    14:00 +28°C° 0 mm 5 m/s 761 mmHg 26%
    15:00 +27°C° 0 mm 6 m/s 761 mmHg 27%
    16:00 +27°C° 0 mm 6 m/s 761 mmHg 28%
    17:00 +27°C° 0 mm 6 m/s 761 mmHg 30%
    18:00 +24°C° 0 mm 6 m/s 761 mmHg 34%
    19:00 +22°C° 0 mm 6 m/s 762 mmHg 39%
    20:00 +21°C° 0 mm 5 m/s 762 mmHg 43%
    21:00 +20°C° 0 mm 5 m/s 762 mmHg 43%
    22:00 +20°C° 0 mm 5 m/s 762 mmHg 42%
    23:00 +20°C° 0 mm 6 m/s 763 mmHg 41%

    22 Noiembrie, Miercuri

    Timp Temperatura Precipitaţii Vânt Presiune Umiditate
    00:00 +19°C° 0 mm 6 m/s 763 mmHg 45%
    01:00 +17°C° 0 mm 6 m/s 762 mmHg 48%
    02:00 +16°C° 0 mm 6 m/s 762 mmHg 51%
    03:00 +16°C° 0 mm 6 m/s 763 mmHg 51%
    04:00 +15°C° 0 mm 6 m/s 763 mmHg 52%
    05:00 +14°C° 0 mm 6 m/s 763 mmHg 53%
    06:00 +16°C° 0 mm 6 m/s 763 mmHg 48%
    07:00 +17°C° 0 mm 6 m/s 764 mmHg 43%
    08:00 +19°C° 0 mm 6 m/s 764 mmHg 38%
    09:00 +22°C° 0 mm 5 m/s 764 mmHg 33%
    10:00 +25°C° 0 mm 5 m/s 763 mmHg 28%
    11:00 +27°C° 0 mm 4 m/s 763 mmHg 23%
    12:00 +28°C° 0 mm 4 m/s 762 mmHg 21%
    13:00 +29°C° 0 mm 4 m/s 761 mmHg 19%
    14:00 +32°C° 0 mm 4 m/s 761 mmHg 16%
    15:00 +30°C° 0 mm 4 m/s 760 mmHg 18%
    16:00 +30°C° 0 mm 5 m/s 760 mmHg 19%
    17:00 +30°C° 0 mm 5 m/s 760 mmHg 21%
    18:00 +27°C° 0 mm 5 m/s 760 mmHg 27%
    19:00 +25°C° 0 mm 5 m/s 760 mmHg 32%
    20:00 +22°C° 0 mm 4 m/s 761 mmHg 38%
    21:00 +21°C° 0 mm 4 m/s 761 mmHg 36%
    22:00 +21°C° 0 mm 4 m/s 761 mmHg 34%
    23:00 +21°C° 0 mm 4 m/s 761 mmHg 33%

    23 Noiembrie, Joi

    Timp Temperatura Precipitaţii Vânt Presiune Umiditate
    00:00 +20°C° 0 mm 5 m/s 761 mmHg 38%
    01:00 +20°C° 0 mm 6 m/s 761 mmHg 43%
    02:00 +19°C° 0 mm 6 m/s 760 mmHg 48%
    03:00 +17°C° 0 mm 6 m/s 760 mmHg 49%
    04:00 +17°C° 0 mm 7 m/s 761 mmHg 51%
    05:00 +16°C° 0 mm 7 m/s 761 mmHg 52%
    06:00 +19°C° 0 mm 6 m/s 761 mmHg 48%
    07:00 +20°C° 0 mm 6 m/s 761 mmHg 44%
    08:00 +22°C° 0 mm 6 m/s 761 mmHg 40%
    09:00 +25°C° 0 mm 5 m/s 761 mmHg 35%
    10:00 +28°C° 0 mm 5 m/s 761 mmHg 29%
    11:00 +32°C° 0 mm 4 m/s 760 mmHg 23%
    12:00 +33°C° 0 mm 3 m/s 759 mmHg 21%
    13:00 +34°C° 0 mm 3 m/s 759 mmHg 19%
    14:00 +36°C° 0 mm 3 m/s 758 mmHg 16%
    15:00 +35°C° 0 mm 3 m/s 758 mmHg 17%
    16:00 +35°C° 0 mm 4 m/s 757 mmHg 18%
    17:00 +34°C° 0 mm 4 m/s 757 mmHg 19%
    18:00 +32°C° 0 mm 4 m/s 757 mmHg 23%
    19:00 +28°C° 0 mm 4 m/s 758 mmHg 27%
    20:00 +26°C° 0 mm 4 m/s 758 mmHg 31%
    21:00 +25°C° 0 mm 4 m/s 758 mmHg 30%
    22:00 +25°C° 0 mm 3 m/s 758 mmHg 30%
    23:00 +24°C° 0 mm 3 m/s 758 mmHg 29%

    24 Noiembrie, Vineri

    Timp Temperatura Precipitaţii Vânt Presiune Umiditate
    00:00 +24°C° 0 mm 3 m/s 757 mmHg 28%
    01:00 +23°C° 0 mm 4 m/s 757 mmHg 27%
    02:00 +23°C° 0 mm 4 m/s 756 mmHg 25%
    03:00 +23°C° 0 mm 4 m/s 756 mmHg 26%
    04:00 +22°C° 0 mm 4 m/s 756 mmHg 26%
    05:00 +22°C° 0 mm 4 m/s 756 mmHg 27%
    06:00 +25°C° 0 mm 4 m/s 757 mmHg 24%
    07:00 +27°C° 0 mm 4 m/s 757 mmHg 22%
    08:00 +29°C° 0 mm 4 m/s 757 mmHg 19%
    09:00 +32°C° 0 mm 4 m/s 757 mmHg 17%
    10:00 +35°C° 0 mm 3 m/s 756 mmHg 15%
    11:00 +37°C° 0 mm 3 m/s 756 mmHg 14%
    12:00 +38°C° 0 mm 3 m/s 755 mmHg 13%
    13:00 +38°C° 0 mm 4 m/s 754 mmHg 13%
    14:00 +40°C° 0 mm 4 m/s 754 mmHg 12%
    15:00 +37°C° 0 mm 4 m/s 754 mmHg 14%
    16:00 +36°C° 0 mm 4 m/s 754 mmHg 17%
    17:00 +35°C° 0 mm 5 m/s 753 mmHg 19%
    18:00 +32°C° 0 mm 4 m/s 754 mmHg 25%
    19:00 +28°C° 0 mm 4 m/s 754 mmHg 30%
    20:00 +26°C° 0 mm 4 m/s 754 mmHg 36%
    21:00 +25°C° 0 mm 3 m/s 754 mmHg 39%
    22:00 +24°C° 0 mm 3 m/s 754 mmHg 42%
    23:00 +22°C° 0 mm 3 m/s 754 mmHg 44%
    Arată mai mult